User: anonymous   Login
Location: Prague
(50.0830°N, 14.4670°E)
Time: 04:35:32
(UTC+01:00)
Language:

KAITUO 1B - Orbit

View from above orbital plane
View from above orbital plane
View from above satellite
View from above satellite

Ground track
Ground track

The orbit data is extracted from the following two-line orbital elements,

1 40912U 15049P   20330.72700823  .00002558  00000-0  11904-3 0  9990
2 40912  97.4486 336.5971 0015951 130.8402 345.5605 15.20749281287227
Epoch (UTC): 25 November 2020 17:26:53
Eccentricity: 0.0015951
inclination: 97.4486°
perigee height: 492 km
apogee height: 514 km
right ascension of ascending node: 336.5971°
argument of perigee: 130.8402°
revolutions per day: 15.20749281
mean anomaly at epoch: 345.5605°
orbit number at epoch: 28722

The dashed part of the orbit path shows where the satellite is in the earth's shadow,  

DLR